Flag for United Kingdom Weather past 2 weeks in Stornoway, Scotland, United Kingdom

Now
52 °F

Fog.


Feels Like: 52 °F
Forecast: 54 / 58 °F
Wind: 2 mph from Northwest

Location: Stornoway

Current Time: Sep 18, 2014 at 7:37:56 AM

Latest Report: Sep 18, 2014 at 6:50 AM


Visibility: 0 mi

Pressure: 29.98 "Hg

Humidity: 100%

Dew point: 52 °F

Location of StornowayLocation

Historic Weather in Stornoway — Graph

°F

Stornoway temperature yesterday

Maximum temperature yesterday: 64 °F (at 11:50 AM)
Minimum temperature yesterday: 50 °F (at 9:50 PM)
Average temperature yesterday: 57 °F

Past Weeks' High & Low Weather Summary

 TemperatureHumidityPressure
High64 °F (Sep 4, 11:50 AM)100% (Sep 16, 7:20 AM)30.42 "Hg (Sep 16, 7:20 AM)
Low41 °F (Sep 11, 5:50 AM)60% (Sep 15, 1:50 PM)29.95 "Hg (Sep 18, 3:50 AM)
Average56 °F83%30.15 "Hg
* Reported Sep 3 6:20 AM — Sep 18 6:20 AM, Stornoway, Weather by CustomWeather, © 2014

Note: Actual official high and low records may vary slightly from our data, if they occured in-between our weather recording intervals... More about our weather records

Advertising

Stornoway weather history for previous 24 hours

 ConditionsComfort  
Time TempWeatherWind HumidityBarometerVisibility
6:20 AM
Sep 18
52 °FFog.3 mph100%29.95 "Hg0 mi
5:50 AM52 °FFog.6 mph100%29.95 "Hg0 mi
5:20 AM54 °FFog.5 mph88%29.95 "Hg0 mi
4:50 AM55 °FFog.2 mph88%29.95 "Hg0 mi
4:20 AM55 °FFog.2 mph88%29.95 "Hg0 mi
3:50 AM54 °FFog.2 mph94%29.95 "Hg0 mi
3:20 AM54 °FFog.3 mph94%29.98 "Hg1 mi
2:50 AM54 °FFog.3 mph88%29.98 "Hg0 mi
2:20 AM52 °FFog.5 mph94%29.98 "Hg0 mi
1:50 AM54 °FFog.6 mph88%29.98 "Hg0 mi
1:20 AM54 °FLight fog.5 mph88%29.98 "Hg4 mi
12:50 AM54 °FLow clouds.5 mph88%29.98 "Hg1 mi
12:20 AM54 °FLow clouds.7 mph88%29.98 "HgN/A
11:50 PM
Sep 17
54 °FLow clouds.7 mph88%29.98 "HgN/A
11:20 PM54 °FLow clouds.6 mph88%30.01 "Hg4 mi
10:50 PM52 °FPassing clouds.7 mph88%30.01 "HgN/A
10:20 PM52 °FPassing clouds.6 mph88%30.01 "HgN/A
9:50 PM50 °FPassing clouds.6 mph88%30.01 "HgN/A
9:20 PM52 °FCool.5 mph82%30.01 "HgN/A
8:50 PM54 °FCool.3 mph82%30.01 "HgN/A
8:20 PM55 °FCool.6 mph82%30.01 "HgN/A
7:50 PM54 °FPassing clouds.5 mph88%30.01 "HgN/A
7:20 PM57 °FLight fog.7 mph82%30.01 "HgN/A
6:50 PM59 °FSnow. Partly sunny.12 mph82%30.01 "HgN/A
6:20 PM57 °FLight fog.9 mph88%30.01 "HgN/A
5:50 PM59 °FPartly sunny.10 mph82%30.01 "HgN/A
5:20 PM57 °FFog.13 mph88%30.01 "Hg1 mi
4:50 PM59 °FPartly sunny.12 mph82%30.01 "HgN/A
4:20 PM61 °FSleet. Light fog.13 mph83%30.01 "HgN/A
3:50 PM61 °FPassing clouds.13 mph83%30.01 "HgN/A
3:20 PM63 °FPassing clouds.10 mph77%30.01 "HgN/A
2:50 PM63 °FPassing clouds.9 mph83%30.01 "HgN/A
2:20 PM64 °FPassing clouds.9 mph78%30.04 "HgN/A
1:50 PM64 °FPassing clouds.5 mph78%30.04 "HgN/A
1:20 PM64 °FPassing clouds.3 mph78%30.04 "HgN/A
12:50 PM64 °FPassing clouds.5 mph78%30.04 "HgN/A
12:20 PM64 °FPassing clouds.5 mph78%30.04 "HgN/A
11:50 AM64 °FPassing clouds.3 mph78%30.04 "HgN/A
11:20 AM59 °FPassing clouds.2 mph94%30.04 "HgN/A
10:50 AM59 °FPassing clouds.3 mph94%30.04 "HgN/A
10:20 AM59 °FPassing clouds.3 mph94%30.07 "HgN/A
9:50 AM57 °FPassing clouds.No wind100%30.07 "HgN/A
9:20 AM57 °FPassing clouds.No wind100%30.07 "HgN/A
8:50 AM57 °FScattered clouds.No wind100%30.04 "HgN/A
8:20 AM57 °FScattered clouds.No wind94%30.04 "HgN/A
7:50 AM55 °FPassing clouds.No wind100%30.04 "HgN/A
7:20 AM55 °FPassing clouds.No wind100%30.04 "HgN/A
Weather by CustomWeather, © 2014

See weather overviewHow to use our weather pages